Location: Bramevaque
(42.9773°N, 0.5757°E)
Time: 16:03:27
(UTC+00:00)

Cosmos 2034 Rocket - Pass Details

Date: 15 May 2026
Orbit: 956 x 1001 km, 82.9° (Epoch: 10 June)

Event Time Altitude Azimuth Distance (km) Brightness Sun altitude
Exits shadow 21:58:34 40° 178° (S) 1,426 4.4 -22.5°
Maximum altitude 22:01:02 82° 95° (E) 1,012 3.9 -22.8°
Drops below altitude 10° 22:07:24 10° 10° (N) 2,764 7.1 -23.3°
Sets 22:09:55 0° 9° (N) 3,711 7.9 -23.5°
